Change the Weather History Date:

Tuesday, October 18, 2011

  Actual Average Record
Temperature  
Mean Temperature 38 °F -  
Max Temperature 44 °F 52 °F 82 °F (1945)
Min Temperature 32 °F 31 °F 7 °F (1972)
Degree Days  
Heating Degree Days 27    
Moisture  
Dew Point 29 °F    
Average Humidity 74    
Maximum Humidity 100    
Minimum Humidity 37    
Precipitation  
Precipitation 0.00 in - - ()
Sea Level Pressure  
Sea Level Pressure 30.05 in    
Wind  
Wind Speed 15 mph (NNW)    
Max Wind Speed 22 mph    
Max Gust Speed 31 mph    
Visibility 10 miles    
Events      
Averages and records for this station are not official NWS values.
T = Trace of Precipitation, MM = Missing Value Source: NWS Daily Summary

Daily Weather History Graph

Daily Weather History Graph

Search for Another Location

Airport or City:

Trip Planner

Search our weather history database for the weather conditions in past years. The results will help you decide how hot, cold, wet, or windy it might be!

Date:

Astronomy

Oct. 18, 2011 Rise Set
Actual Time 7:45 AM CDT 6:31 PM CDT
Civil Twilight 7:14 AM CDT 7:02 PM CDT
Nautical Twilight 6:39 AM CDT 7:37 PM CDT
Astronomical Twilight 6:04 AM CDT 8:12 PM CDT
Moon 11:00 PM CDT (10/18) 1:50 PM CDT (10/18)
Length of Visible Light 11h 47m
Length of Day
10h 46m
Waning Gibbous, 64% of the Moon is Illuminated
Oct 18
Waning Gibbous
Oct 19
Last Quarter
Oct 26
New
Nov 2
First Quarter
Nov 10
Full

Hourly Weather History & Observations

Time (CDT) Temp. Windchill Dew Point Humidity Pressure Visibility Wind Dir Wind Speed Gust Speed Precip Events Conditions
12:13 AM 35.6 °F 27.1 °F 32.0 °F 87% 29.96 in 10.0 mi NW 12.7 mph - N/A   Mostly Cloudy
12:33 AM 35.6 °F 26.2 °F 32.0 °F 87% 29.96 in 10.0 mi NNW 15.0 mph - N/A   Overcast
12:53 AM 35.6 °F 26.6 °F 32.0 °F 87% 29.96 in 10.0 mi NNW 13.8 mph - N/A   Overcast
1:14 AM 35.6 °F 27.1 °F 32.0 °F 87% 29.96 in 10.0 mi NW 12.7 mph - N/A   Overcast
1:33 AM 35.6 °F 26.2 °F 32.0 °F 87% 29.96 in 10.0 mi NNW 15.0 mph - N/A   Overcast
1:53 AM 35.6 °F 26.6 °F 32.0 °F 87% 29.97 in 10.0 mi NNW 13.8 mph - N/A   Overcast
2:14 AM 35.6 °F 26.2 °F 32.0 °F 87% 29.98 in 10.0 mi NNW 15.0 mph 19.6 mph N/A   Overcast
2:53 AM 35.6 °F 26.2 °F 32.0 °F 87% 29.99 in 10.0 mi NNW 15.0 mph 21.9 mph N/A   Overcast
3:33 AM 37.4 °F 27.8 °F 33.8 °F 87% 29.99 in 10.0 mi NNW 17.3 mph 24.2 mph N/A   Overcast
3:53 AM 37.4 °F 28.2 °F 33.8 °F 87% 29.99 in 10.0 mi NNW 16.1 mph 23.0 mph N/A   Overcast
4:13 AM 37.4 °F 28.5 °F 33.8 °F 87% 30.00 in 10.0 mi NNW 15.0 mph 21.9 mph N/A   Overcast
4:33 AM 35.6 °F 25.5 °F 32.0 °F 87% 30.00 in 10.0 mi NNW 17.3 mph - N/A   Overcast
4:53 AM 35.6 °F 25.5 °F 32.0 °F 87% 30.01 in 10.0 mi NNW 17.3 mph 23.0 mph N/A   Overcast
5:14 AM 35.6 °F 26.2 °F 32.0 °F 87% 30.01 in 10.0 mi NNW 15.0 mph - N/A   Overcast
5:33 AM 33.8 °F 23.5 °F 32.0 °F 93% 30.02 in 10.0 mi NNW 16.1 mph 21.9 mph N/A   Scattered Clouds
6:13 AM 33.8 °F 24.3 °F 32.0 °F 93% 30.03 in 10.0 mi NNW 13.8 mph 19.6 mph N/A   Mostly Cloudy
6:33 AM 33.8 °F 24.3 °F 32.0 °F 93% 30.03 in 10.0 mi NNW 13.8 mph - N/A   Overcast
6:53 AM 33.8 °F 24.8 °F 32.0 °F 93% 30.04 in 10.0 mi NNW 12.7 mph - N/A   Overcast
7:13 AM 33.8 °F 24.8 °F 32.0 °F 93% 30.05 in 10.0 mi NNW 12.7 mph - N/A   Overcast
7:33 AM 33.8 °F 23.9 °F 32.0 °F 93% 30.05 in 10.0 mi NNW 15.0 mph - N/A   Overcast
7:53 AM 32.0 °F 22.1 °F 32.0 °F 100% 30.05 in 10.0 mi NNW 13.8 mph - N/A   Overcast
8:14 AM 32.0 °F 21.6 °F 32.0 °F 100% 30.06 in 10.0 mi NNW 15.0 mph - N/A   Overcast
8:33 AM 33.8 °F 23.9 °F 30.2 °F 87% 30.07 in 10.0 mi NNW 15.0 mph 19.6 mph N/A   Overcast
8:53 AM 32.0 °F 21.6 °F 30.2 °F 93% 30.08 in 10.0 mi NNW 15.0 mph 19.6 mph N/A   Overcast
9:13 AM 33.8 °F 23.2 °F 30.2 °F 87% 30.09 in 10.0 mi NNW 17.3 mph - N/A   Overcast
9:33 AM 33.8 °F 23.9 °F 30.2 °F 87% 30.09 in 10.0 mi NNW 15.0 mph - N/A   Overcast
9:53 AM 33.8 °F 23.9 °F 30.2 °F 87% 30.10 in 10.0 mi NNW 15.0 mph 19.6 mph N/A   Overcast
10:14 AM 33.8 °F 23.9 °F 30.2 °F 87% 30.10 in 10.0 mi NNW 15.0 mph 23.0 mph N/A   Overcast
10:33 AM 35.6 °F 26.2 °F 30.2 °F 81% 30.10 in 10.0 mi NNW 15.0 mph - N/A   Mostly Cloudy
11:13 AM 39.2 °F 30.2 °F 30.2 °F 70% 30.10 in 10.0 mi NNW 17.3 mph 21.9 mph N/A   Scattered Clouds
11:53 AM 39.2 °F 29.6 °F 30.2 °F 70% 30.11 in 10.0 mi North 19.6 mph 25.3 mph N/A   Mostly Cloudy
12:13 PM 39.2 °F 30.5 °F 30.2 °F 70% 30.10 in 10.0 mi North 16.1 mph 26.5 mph N/A   Mostly Cloudy
12:33 PM 41.0 °F 32.2 °F 28.4 °F 61% 30.10 in 10.0 mi NNW 18.4 mph 25.3 mph N/A   Mostly Cloudy
12:53 PM 41.0 °F 31.9 °F 28.4 °F 61% 30.10 in 10.0 mi NNW 19.6 mph 25.3 mph N/A   Scattered Clouds
1:13 PM 41.0 °F 31.9 °F 28.4 °F 61% 30.09 in 10.0 mi North 19.6 mph 25.3 mph N/A   Scattered Clouds
1:33 PM 42.8 °F 34.8 °F 28.4 °F 57% 30.09 in 10.0 mi North 17.3 mph 29.9 mph N/A   Scattered Clouds
2:13 PM 42.8 °F 33.8 °F 26.6 °F 53% 30.08 in 10.0 mi NW 21.9 mph 26.5 mph N/A   Clear
2:34 PM 42.8 °F 35.8 °F 24.8 °F 49% 30.08 in 10.0 mi North 13.8 mph 27.6 mph N/A   Clear
2:53 PM 42.8 °F 33.8 °F 23.0 °F 46% 30.08 in 10.0 mi NNW 21.9 mph 29.9 mph N/A   Clear
3:13 PM 44.6 °F 37.8 °F 21.2 °F 39% 30.07 in 10.0 mi North 15.0 mph 29.9 mph N/A   Clear
3:33 PM 44.6 °F 36.9 °F 19.4 °F 37% 30.07 in 10.0 mi North 18.4 mph 27.6 mph N/A   Clear
3:53 PM 42.8 °F 34.5 °F 19.4 °F 39% 30.08 in 10.0 mi NNW 18.4 mph 31.1 mph N/A   Clear
4:14 PM 42.8 °F 33.8 °F 21.2 °F 42% 30.08 in 10.0 mi NNW 21.9 mph 28.8 mph N/A   Clear
4:53 PM 42.8 °F 34.0 °F 21.2 °F 42% 30.08 in 10.0 mi NNW 20.7 mph 29.9 mph N/A   Clear
5:53 PM 41.0 °F 32.2 °F 21.2 °F 45% 30.09 in 10.0 mi NNW 18.4 mph 25.3 mph N/A   Clear
6:14 PM 41.0 °F 32.2 °F 21.2 °F 45% 30.10 in 10.0 mi NNW 18.4 mph 24.2 mph N/A   Clear
6:33 PM 39.2 °F 31.2 °F 21.2 °F 49% 30.10 in 10.0 mi NNW 13.8 mph 21.9 mph N/A   Clear
6:53 PM 37.4 °F 28.9 °F 23.0 °F 56% 30.11 in 10.0 mi NNW 13.8 mph 20.7 mph N/A   Clear
7:14 PM 37.4 °F 29.8 °F 23.0 °F 56% 30.12 in 10.0 mi NNW 11.5 mph 17.3 mph N/A   Clear
7:33 PM 37.4 °F 28.9 °F 23.0 °F 56% 30.12 in 10.0 mi NNW 13.8 mph 18.4 mph N/A   Clear
7:53 PM 35.6 °F 27.5 °F 23.0 °F 60% 30.13 in 10.0 mi NNW 11.5 mph - N/A   Clear
8:13 PM 33.8 °F 26.4 °F 21.2 °F 60% 30.13 in 10.0 mi NNW 9.2 mph - N/A   Clear
8:33 PM 33.8 °F 24.8 °F 21.2 °F 60% 30.13 in 10.0 mi NNW 12.7 mph - N/A   Clear
8:53 PM 33.8 °F 25.3 °F 19.4 °F 56% 30.13 in 10.0 mi NNW 11.5 mph - N/A   Clear
9:14 PM 33.8 °F 24.8 °F 19.4 °F 56% 30.14 in 10.0 mi NNW 12.7 mph - N/A   Clear
9:33 PM 33.8 °F 24.3 °F 21.2 °F 60% 30.14 in 10.0 mi North 13.8 mph - N/A   Clear
9:53 PM 33.8 °F 24.8 °F 19.4 °F 56% 30.14 in 10.0 mi North 12.7 mph 16.1 mph N/A   Clear
10:14 PM 33.8 °F 25.8 °F 21.2 °F 60% 30.14 in 10.0 mi North 10.4 mph 16.1 mph N/A   Clear
10:33 PM 32.0 °F 23.0 °F 21.2 °F 64% 30.15 in 10.0 mi North 11.5 mph - N/A   Clear
10:53 PM 32.0 °F 22.5 °F 21.2 °F 64% 30.15 in 10.0 mi North 12.7 mph - N/A   Clear
11:14 PM 32.0 °F 26.4 °F 21.2 °F 64% 30.14 in 10.0 mi North 5.8 mph - N/A   Clear
11:33 PM 32.0 °F 27.5 °F 23.0 °F 69% 30.14 in 10.0 mi North 4.6 mph - N/A   Clear
11:53 PM 32.0 °F 27.5 °F 23.0 °F 69% 30.14 in 10.0 mi North 4.6 mph - N/A   Clear